Location: Riverton
(43.0250°N, 108.3790°W)
Time: 01:33:10
(UTC-07:00)

Amateur Radio Satellites - All Passes

Search period start: 23 November 2014 01:03
Search period end: 24 November 2014 01:03
Location: Riverton, 43.0250°N, 108.3790°W

Satellite Date Start Highest point End Downlink Frequencies (MHz)
Time Altitude Azimuth
Oscar 19 23 Nov 01:13:27 01:18:08 34° 97° (E) 01:22:49 437.125/150
AUBIESAT-1 23 Nov 01:15:41 01:18:45 22° 263° (W) 01:22:04 437.475
M-CUBED/EXP-1 PRIME 23 Nov 01:18:50 01:21:37 18° 264° (W) 01:24:36 437.505
ISS 23 Nov 01:33:14 01:36:29 60° 330° (NNW) 01:39:45 145.825
RS-15 23 Nov 01:35:02 01:46:19 83° 56° (NE) 01:58:04 29.354- 29.394
YUBILEINY 23 Nov 01:35:08 01:41:42 24° 80° (E) 01:48:14 435.215
MaSat-1 23 Nov 01:37:12 01:39:26 46° 246° (WSW) 01:41:44 437.345
STARS 23 Nov 01:38:41 01:42:48 40° 70° (ENE) 01:46:56 437.465
ITUPSAT 1 23 Nov 01:44:10 01:48:20 29° 264° (W) 01:52:32 437.325
SWISSCUBE 23 Nov 01:57:17 02:00:49 20° 267° (W) 02:04:22 437.505
ITAMSAT 1 23 Nov 01:58:53 02:03:38 35° 97° (E) 02:08:20 435.822/435.867
Gurwin Techsat 1B 23 Nov 02:11:22 02:15:52 27° 95° (E) 02:20:20 435.225
KKS-1 23 Nov 02:11:51 02:16:16 62° 259° (WSW) 02:20:42 437.445
BEESAT 23 Nov 02:32:29 02:33:03 10° 272° (W) 02:33:37 436.000
Oscar 19 23 Nov 02:52:54 02:57:23 31° 294° (WNW) 03:01:52 437.125/150
MOZHAYETS 4 23 Nov 02:55:33 02:57:09 12° 60° (ENE) 02:58:45
ISS 23 Nov 03:11:04 03:13:37 20° 349° (N) 03:16:11 145.825
STARS 23 Nov 03:16:14 03:19:27 20° 267° (W) 03:22:41 437.465
HORYU 2 23 Nov 03:17:33 03:21:56 51° 100° (E) 03:26:18 437.375
YUBILEINY 23 Nov 03:28:45 03:37:33 75° 280° (W) 03:46:23 435.215
AO-7 23 Nov 03:29:40 03:36:38 29° 94° (E) 03:43:34 29.400- 29.500
ITAMSAT 1 23 Nov 03:38:32 03:43:01 30° 294° (WNW) 03:47:29 435.822/435.867
PCSat 23 Nov 03:39:53 03:42:58 15° 37° (NE) 03:46:02 145.827
RS-15 23 Nov 03:48:36 03:57:30 28° 257° (WSW) 04:06:43 29.354- 29.394
Gurwin Techsat 1B 23 Nov 03:51:00 03:55:56 40° 292° (WNW) 04:00:50 435.225
SO-50 23 Nov 04:16:23 04:20:38 43° 117° (ESE) 04:25:02 436.795
MOZHAYETS 4 23 Nov 04:29:06 04:33:41 84° 257° (WSW) 04:38:20
BEESAT 3 23 Nov 04:46:23 04:49:51 24° 45° (NE) 04:53:17 437.485
ISS 23 Nov 04:48:34 04:51:06 20° 10° (N) 04:53:39 145.825
HORYU 2 23 Nov 04:55:16 04:58:13 18° 297° (WNW) 05:01:10 437.375
BEESAT 2 23 Nov 04:58:59 05:02:40 28° 46° (NE) 05:06:19 435.950
STRAND 1 23 Nov 05:14:52 05:19:07 27° 65° (ENE) 05:23:23 437.568
PRISM 23 Nov 05:15:56 05:20:04 64° 74° (ENE) 05:24:16 437.425
AIST 2 23 Nov 05:19:01 05:22:36 25° 44° (NE) 05:26:08 435.215
AO-7 23 Nov 05:21:42 05:29:58 67° 293° (WNW) 05:38:13 29.400- 29.500
PCSat 23 Nov 05:21:57 05:27:24 71° 58° (ENE) 05:32:47 145.827
JAS-2 23 Nov 05:24:35 05:31:52 65° 100° (E) 05:38:15 435.910
YUBILEINY 23 Nov 05:30:59 05:36:04 16° 303° (WNW) 05:41:11 435.215
O/OREOS (USA 219) 23 Nov 05:42:26 05:45:31 19° 101° (E) 05:48:36 437.305
Cubesat XI-IV 23 Nov 05:52:07 05:56:46 30° 95° (E) 06:01:22 437.490
SO-50 23 Nov 05:57:28 06:01:21 27° 317° (NW) 06:05:21 436.795
CUBESAT XI-V 23 Nov 06:01:09 06:05:50 68° 74° (ENE) 06:10:33 437.345
BEESAT 3 23 Nov 06:24:17 06:28:14 40° 243° (WSW) 06:32:07 437.485
ISS 23 Nov 06:25:00 06:28:16 57° 29° (NNE) 06:31:32 145.825
CUTE-I 23 Nov 06:34:02 06:39:22 70° 103° (ESE) 06:44:38 437.470
BEESAT 2 23 Nov 06:37:12 06:41:00 33° 244° (WSW) 06:44:44 435.950
STRAND 1 23 Nov 06:53:17 06:58:06 40° 262° (W) 07:02:57 437.568
PRISM 23 Nov 06:54:39 06:56:04 11° 270° (W) 06:57:29 437.425
AIST 1 23 Nov 06:56:42 07:01:01 52° 79° (ENE) 07:05:16
AIST 2 23 Nov 06:57:19 07:01:24 42° 243° (WSW) 07:05:24 435.215
PCSat 23 Nov 07:06:49 07:10:11 17° 256° (WSW) 07:13:32 145.827
JAS-2 23 Nov 07:10:23 07:16:12 26° 302° (WNW) 07:21:33 435.910
AO-7 23 Nov 07:16:24 07:21:14 17° 314° (NW) 07:26:04 29.400- 29.500
O/OREOS (USA 219) 23 Nov 07:20:16 07:24:34 44° 298° (WNW) 07:28:52 437.305
GONETS M04 23 Nov 07:24:17 07:31:11 27° 81° (E) 07:38:06
Cubesat XI-IV 23 Nov 07:32:02 07:36:54 37° 293° (WNW) 07:41:44 437.490
CUBESAT XI-V 23 Nov 07:41:30 07:43:45 13° 271° (W) 07:46:00 437.345
ISS 23 Nov 08:02:13 08:04:40 19° 226° (SW) 08:07:05 145.825
CUTE-I 23 Nov 08:15:27 08:18:51 17° 300° (WNW) 08:22:14 437.470
SEEDS 23 Nov 08:17:04 08:19:34 15° 91° (E) 08:22:03 437.485
AIST 1 23 Nov 08:35:56 08:38:11 14° 276° (W) 08:40:24
UNISAT 6 23 Nov 08:37:40 08:38:35 11° 60° (ENE) 08:39:30 437.425
CANX-2 23 Nov 08:39:37 08:43:31 33° 97° (E) 08:47:24 2200.000
AAUSAT CUBESAT 2 23 Nov 08:39:42 08:42:50 20° 93° (E) 08:45:57 437.432
DOVE 4 23 Nov 08:44:55 08:47:41 17° 93° (E) 08:50:28 437.250
COMPASS 1 23 Nov 08:52:20 08:56:07 31° 96° (E) 08:59:52 437.405
NANOSAT C BR1 23 Nov 08:52:28 08:53:29 11° 60° (ENE) 08:54:30 145.865
QB50P1 23 Nov 09:00:46 09:02:50 13° 62° (ENE) 09:04:55 145.935-145.965
DELFI C3 23 Nov 09:01:08 09:03:25 14° 91° (E) 09:05:42 145.870
ANTELSAT 23 Nov 09:03:34 09:06:41 20° 65° (ENE) 09:09:47 437.575/2403.000
HO-68 23 Nov 09:06:43 09:13:51 62° 103° (ESE) 09:20:55 435.675
GOMX 1 23 Nov 09:11:53 09:15:53 45° 99° (E) 09:19:55 467.674
CUTE 1.7 & AOD 2 23 Nov 09:14:26 09:18:44 75° 102° (ESE) 09:23:01 437.475
GONETS M04 23 Nov 09:18:26 09:27:11 69° 281° (W) 09:36:03
POPSAT HIP 1 23 Nov 09:23:40 09:27:01 23° 66° (ENE) 09:30:21 437.405
BRITE-PL 23 Nov 09:24:55 09:29:06 90° 103° (ESE) 09:33:15 437.365/2234.400
BUGSAT 1 23 Nov 09:26:14 09:29:24 21° 66° (ENE) 09:32:34 437.445
FUNcube-1 23 Nov 09:26:43 09:28:59 14° 91° (E) 09:31:16 145.935
UKube-1 23 Nov 09:27:43 09:31:30 29° 96° (E) 09:35:16 .
CUBEBUG 2 23 Nov 09:37:26 09:40:57 25° 95° (E) 09:44:31 437.445
Oscar 11 23 Nov 09:41:02 09:45:15 47° 99° (E) 09:49:27 145.826/435.025
CINEMA 3 23 Nov 09:42:32 09:46:33 45° 99° (E) 09:50:40 145.822/145.860
UWE-3 23 Nov 09:44:04 09:47:37 26° 95° (E) 09:51:12 435.000/436.395/437.385
SEEDS 23 Nov 09:51:33 09:55:41 49° 287° (WNW) 09:59:48 437.485
POLYITAN 1 23 Nov 09:54:25 09:58:32 48° 72° (ENE) 10:02:38 437.675
QB50P2 23 Nov 09:57:39 10:01:47 52° 73° (ENE) 10:05:56 145.880/145.840
TIGRISAT 23 Nov 09:58:33 10:02:48 75° 75° (ENE) 10:07:04 435.000
DX 1 23 Nov 09:59:50 10:04:10 67° 102° (ESE) 10:08:29 434.975-435.025
DUCHIFAT 1 23 Nov 10:05:38 10:09:50 63° 74° (ENE) 10:14:03 145.980
UNISAT 6 23 Nov 10:10:28 10:14:45 80° 257° (WSW) 10:19:03 437.425
AAUSAT CUBESAT 2 23 Nov 10:14:45 10:18:38 36° 289° (WNW) 10:22:31 437.432
CANX-2 23 Nov 10:15:54 10:19:17 23° 293° (WNW) 10:22:40 2200.000
VELOX 1 23 Nov 10:16:32 10:20:30 31° 97° (E) 10:24:25 145.980
DOVE 4 23 Nov 10:21:47 10:25:40 39° 289° (WNW) 10:29:36 437.250
NANOSAT C BR1 23 Nov 10:24:29 10:28:45 80° 257° (WSW) 10:33:02 145.865
ZACube-1 23 Nov 10:25:32 10:29:43 64° 101° (E) 10:33:57 437.345
COMPASS 1 23 Nov 10:28:18 10:31:43 24° 293° (WNW) 10:35:09 437.405
HUMSAT D 23 Nov 10:31:31 10:35:30 44° 99° (E) 10:39:31 437.325/437.525
QB50P1 23 Nov 10:34:01 10:38:15 62° 259° (W) 10:42:29 145.935-145.965
DELFI C3 23 Nov 10:35:00 10:39:00 49° 287° (WNW) 10:42:59 145.870
ANTELSAT 23 Nov 10:39:15 10:43:15 38° 262° (W) 10:47:15 437.575/2403.000
50 SAT 23 Nov 10:40:27 10:44:22 46° 99° (E) 10:48:17 437.505
AISAT 23 Nov 10:40:37 10:45:00 58° 101° (E) 10:49:21 437.250
GOMX 1 23 Nov 10:51:09 10:53:42 16° 296° (WNW) 10:56:15 467.674
CUTE 1.7 & AOD 2 23 Nov 10:52:38 10:54:04 12° 299° (WNW) 10:55:31 437.475
HO-68 23 Nov 10:55:11 11:01:04 29° 302° (WNW) 11:06:57 435.675
POPSAT HIP 1 23 Nov 10:58:53 11:02:45 33° 263° (W) 11:06:38 437.405
BUGSAT 1 23 Nov 11:00:42 11:04:40 37° 262° (W) 11:08:39 437.445
FUNcube-1 23 Nov 11:01:34 11:05:38 51° 287° (WNW) 11:09:47 145.935
UKube-1 23 Nov 11:03:56 11:07:36 27° 293° (WNW) 11:11:14 .
CUBEBUG 1 23 Nov 11:04:56 11:09:02 37° 98° (E) 11:13:04 437.445
SO-50 23 Nov 11:07:56 11:09:52 12° 31° (NNE) 11:11:49 436.795
CUBEBUG 2 23 Nov 11:14:02 11:17:39 29° 291° (WNW) 11:21:20 437.445
Oscar 11 23 Nov 11:18:12 11:21:04 18° 296° (WNW) 11:23:56 145.826/435.025
UWE-3 23 Nov 11:20:32 11:24:08 28° 291° (WNW) 11:27:47 435.000/436.395/437.385
CINEMA 3 23 Nov 11:20:47 11:23:28 17° 295° (WNW) 11:26:11 145.822/145.860
GONETS M04 23 Nov 11:21:22 11:25:56 15° 304° (NW) 11:30:32
POLYITAN 1 23 Nov 11:32:11 11:34:45 15° 268° (W) 11:37:19 437.675
SHINDAISAT 23 Nov 11:34:34 11:35:39 15° 310° (NW) 11:36:45 437.305
QB50P2 23 Nov 11:35:42 11:38:02 14° 269° (W) 11:40:21 145.880/145.840
DX 1 23 Nov 11:37:49 11:39:52 13° 299° (WNW) 11:41:55 434.975-435.025
ESTCUBE 1 23 Nov 11:40:37 11:45:12 86° 284° (WNW) 11:49:44 437.505/2401.250
YUBILEINY 23 Nov 11:44:29 11:47:29 12° 53° (NE) 11:50:27 435.215
DUCHIFAT 1 23 Nov 11:44:33 11:46:07 12° 270° (W) 11:47:42 145.980
VELOX 1 23 Nov 11:53:19 11:56:59 26° 293° (WNW) 12:00:37 145.980
ZACube-1 23 Nov 12:03:44 12:05:37 13° 298° (WNW) 12:07:29 437.345
HUMSAT D 23 Nov 12:08:19 12:11:00 17° 295° (WNW) 12:13:42 437.325/437.525
50 SAT 23 Nov 12:16:54 12:19:20 16° 296° (WNW) 12:21:47 437.505
AISAT 23 Nov 12:18:38 12:21:10 15° 298° (WNW) 12:23:42 437.250
SWISSCUBE 23 Nov 12:20:34 12:21:41 11° 88° (E) 12:22:47 437.505
Oscar 19 23 Nov 12:31:10 12:36:08 55° 71° (ENE) 12:41:08 437.125/150
TISAT 1 23 Nov 12:40:04 12:44:17 76° 285° (WNW) 12:48:28 437.305
SPROUT 23 Nov 12:40:42 12:45:00 85° 284° (WNW) 12:49:17 437.525
CUBEBUG 1 23 Nov 12:41:52 12:45:11 21° 295° (WNW) 12:48:27 437.445
AO-7 23 Nov 12:45:01 12:46:35 11° 38° (NE) 12:48:09 29.400- 29.500
SO-50 23 Nov 12:46:44 12:51:31 53° 51° (NE) 12:56:18 436.795
BEESAT 23 Nov 12:50:10 12:53:47 21° 93° (E) 12:57:22 436.000
AUBIESAT-1 23 Nov 12:56:20 13:00:37 29° 100° (E) 13:04:51 437.475
M-CUBED/EXP-1 PRIME 23 Nov 12:59:21 13:03:51 34° 101° (E) 13:08:16 437.505
ITAMSAT 1 23 Nov 13:17:38 13:22:46 59° 72° (ENE) 13:27:54 435.822/435.867
ESTCUBE 1 23 Nov 13:20:55 13:21:19 10° 302° (WNW) 13:21:43 437.505/2401.250
Gurwin Techsat 1B 23 Nov 13:33:12 13:38:16 47° 70° (ENE) 13:43:21 435.225
YUBILEINY 23 Nov 13:37:55 13:46:32 59° 77° (ENE) 13:55:02 435.215
ITUPSAT 1 23 Nov 13:43:13 13:48:02 69° 102° (ESE) 13:52:48 437.325
CUSAT 1 23 Nov 13:50:49 13:53:27 36° 283° (WNW) 13:55:54 437.405
SWISSCUBE 23 Nov 13:55:19 14:00:10 83° 285° (WNW) 14:04:57 437.505
KKS-1 23 Nov 14:02:52 14:06:26 23° 95° (E) 14:09:59 437.445
DANDE 23 Nov 14:04:14 14:06:52 30° 283° (WNW) 14:09:15 436.750
Oscar 19 23 Nov 14:12:17 14:15:49 19° 268° (W) 14:19:22 437.125/150
HORYU 2 23 Nov 14:17:05 14:21:23 53° 72° (ENE) 14:25:42 437.375
BEESAT 23 Nov 14:27:16 14:31:50 44° 290° (WNW) 14:36:21 436.000
SO-50 23 Nov 14:28:04 14:31:44 21° 249° (WSW) 14:35:24 436.795
AO-7 23 Nov 14:29:32 14:37:11 44° 61° (ENE) 14:44:52 29.400- 29.500
AUBIESAT-1 23 Nov 14:31:07 14:35:36 36° 296° (WNW) 14:40:02 437.475
M-CUBED/EXP-1 PRIME 23 Nov 14:34:26 14:38:46 32° 298° (WNW) 14:43:06 437.505
ITAMSAT 1 23 Nov 14:59:09 15:02:38 18° 269° (W) 15:06:08 435.822/435.867
STARS 23 Nov 15:04:00 15:08:24 72° 103° (ESE) 15:12:46 437.465
MaSat-1 23 Nov 15:07:42 15:09:46 17° 110° (ESE) 15:11:43 437.345
Gurwin Techsat 1B 23 Nov 15:14:17 15:18:27 23° 267° (W) 15:22:38 435.225
PHONESAT 2.4 23 Nov 15:16:27 15:18:23 14° 149° (SSE) 15:20:19 2401.200-2431.200
ITUPSAT 1 23 Nov 15:22:38 15:25:22 15° 300° (WNW) 15:28:05 437.325
YUBILEINY 23 Nov 15:35:30 15:42:47 31° 277° (W) 15:50:03 435.215
JAS-2 23 Nov 15:36:05 15:42:52 37° 63° (ENE) 15:49:52 435.910
SWISSCUBE 23 Nov 15:36:06 15:37:13 11° 303° (WNW) 15:38:20 437.505
VERMONT LUNAR 23 Nov 15:37:40 15:40:34 23° 155° (SSE) 15:43:29 437.305
KKS-1 23 Nov 15:39:08 15:43:08 34° 291° (WNW) 15:47:08 437.445
O/OREOS (USA 219) 23 Nov 15:49:56 15:54:12 42° 62° (ENE) 15:58:26 437.305
HORYU 2 23 Nov 15:55:49 15:58:23 15° 269° (W) 16:00:58 437.375
RS-15 23 Nov 15:59:56 16:10:11 48° 111° (ESE) 16:20:24 29.354- 29.394
CUTE-I 23 Nov 16:19:16 16:22:48 18° 60° (ENE) 16:26:21 437.470
AO-7 23 Nov 16:22:02 16:29:53 46° 260° (W) 16:37:49 29.400- 29.500
MOZHAYETS 4 23 Nov 16:24:12 16:27:51 22° 93° (E) 16:31:28
MaSat-1 23 Nov 16:41:58 16:44:17 20° 302° (WNW) 16:46:26 437.345
STARS 23 Nov 16:42:27 16:44:18 13° 299° (WNW) 16:46:10 437.465
PHONESAT 2.4 23 Nov 16:53:06 16:56:36 40° 164° (SSE) 17:00:06 2401.200-2431.200
Cubesat XI-IV 23 Nov 17:14:55 17:20:08 54° 71° (ENE) 17:25:22 437.490
VERMONT LUNAR 23 Nov 17:15:08 17:18:41 52° 172° (S) 17:22:14 437.305
JAS-2 23 Nov 17:20:13 17:27:32 53° 262° (W) 17:35:14 435.910
O/OREOS (USA 219) 23 Nov 17:30:05 17:33:17 20° 259° (W) 17:36:28 437.305
GONETS M04 23 Nov 17:33:23 17:37:30 14° 54° (NE) 17:41:35
HO-68 23 Nov 17:55:09 17:56:46 11° 45° (NE) 17:58:24 435.675
CUTE-I 23 Nov 17:56:59 18:02:20 67° 258° (WSW) 18:07:41 437.470
CUBESAT XI-V 23 Nov 17:58:34 18:01:26 16° 90° (E) 18:04:17 437.345
MOZHAYETS 4 23 Nov 18:00:52 18:05:12 39° 290° (WNW) 18:09:31
RS-15 23 Nov 18:11:44 18:22:23 55° 315° (NW) 18:33:09 29.354- 29.394
PHONESAT 2.4 23 Nov 18:31:31 18:35:11 59° 181° (S) 18:38:51 2401.200-2431.200
PRISM 23 Nov 18:33:47 18:38:04 85° 285° (WNW) 18:42:17 437.425
VERMONT LUNAR 23 Nov 18:53:27 18:57:00 51° 189° (S) 19:00:32 437.305
Cubesat XI-IV 23 Nov 18:56:36 19:00:32 21° 268° (W) 19:04:30 437.490
BRITE-PL 23 Nov 19:00:40 19:03:14 14° 63° (ENE) 19:05:43 437.365/2234.400
STRAND 1 23 Nov 19:02:32 19:07:37 64° 102° (ESE) 19:12:40 437.568
SEEDS 23 Nov 19:11:37 19:13:34 13° 62° (ENE) 19:15:31 437.485
SHINDAISAT 23 Nov 19:12:00 19:13:31 35° 54° (NE) 19:15:00 437.305
GONETS M04 23 Nov 19:27:35 19:36:23 65° 78° (ENE) 19:45:05
AIST 1 23 Nov 19:27:36 19:31:25 30° 90° (E) 19:35:17
AAUSAT CUBESAT 2 23 Nov 19:32:56 19:35:33 17° 64° (ENE) 19:38:11 437.432
CANX-2 23 Nov 19:34:06 19:37:40 27° 68° (ENE) 19:41:16 2200.000
CUBESAT XI-V 23 Nov 19:34:39 19:39:14 54° 287° (WNW) 19:43:45 437.345
HO-68 23 Nov 19:35:58 19:42:50 51° 66° (ENE) 19:49:45 435.675
COMPASS 1 23 Nov 19:45:31 19:48:54 25° 68° (ENE) 19:52:19 437.405
DOVE 4 23 Nov 19:51:40 19:55:16 23° 67° (ENE) 19:58:43 437.250
DELFI C3 23 Nov 19:52:29 19:53:50 11° 62° (ENE) 19:55:11 145.870
PCSat 23 Nov 20:04:28 20:09:43 54° 115° (ESE) 20:15:00 145.827
CUTE 1.7 & AOD 2 23 Nov 20:08:26 20:12:34 59° 74° (ENE) 20:16:45 437.475
PHONESAT 2.4 23 Nov 20:10:19 20:13:44 35° 198° (SSW) 20:17:09 2401.200-2431.200
BEESAT 3 23 Nov 20:20:18 20:23:52 30° 115° (ESE) 20:27:31 437.485
GOMX 1 23 Nov 20:20:42 20:25:28 59° 74° (ENE) 20:29:56 467.674
UKube-1 23 Nov 20:23:58 20:27:44 29° 68° (ENE) 20:31:31 .
FUNcube-1 23 Nov 20:24:41 20:26:49 14° 63° (ENE) 20:28:55 145.935
RS-15 23 Nov 20:29:22 20:37:58 25° 346° (NNW) 20:46:43 29.354- 29.394
VERMONT LUNAR 23 Nov 20:32:13 20:35:06 22° 205° (SSW) 20:37:58 437.305
BEESAT 2 23 Nov 20:33:23 20:37:11 37° 116° (ESE) 20:41:03 435.950
BRITE-PL 23 Nov 20:36:10 20:41:17 73° 258° (WSW) 20:46:01 437.365/2234.400
Oscar 11 23 Nov 20:36:53 20:40:55 41° 71° (ENE) 20:44:59 145.826/435.025
CUBEBUG 2 23 Nov 20:37:20 20:40:49 25° 68° (ENE) 20:44:16 437.445
UWE-3 23 Nov 20:42:54 20:46:21 25° 68° (ENE) 20:49:46 435.000/436.395/437.385
STRAND 1 23 Nov 20:42:58 20:46:17 18° 299° (WNW) 20:49:36 437.568
SEEDS 23 Nov 20:44:45 20:48:54 62° 259° (W) 20:53:04 437.485
CINEMA 3 23 Nov 20:45:30 20:49:45 48° 73° (ENE) 20:53:52 145.822/145.860
DX 1 23 Nov 20:56:18 21:00:38 66° 73° (ENE) 21:05:00 434.975-435.025
AIST 2 23 Nov 20:56:40 21:00:27 33° 115° (ESE) 21:04:18 435.215
AIST 1 23 Nov 21:05:30 21:09:05 24° 287° (WNW) 21:12:44
AAUSAT CUBESAT 2 23 Nov 21:06:53 21:10:53 46° 261° (W) 21:14:55 437.432
ESTCUBE 1 23 Nov 21:08:00 21:09:33 12° 59° (ENE) 21:11:05 437.505/2401.250
CANX-2 23 Nov 21:10:01 21:13:34 26° 265° (W) 21:17:10 2200.000
VELOX 1 23 Nov 21:15:29 21:19:30 33° 69° (ENE) 21:23:30 145.980
COMPASS 1 23 Nov 21:20:54 21:24:32 29° 264° (W) 21:28:12 437.405
ZACube-1 23 Nov 21:22:47 21:26:56 56° 74° (ENE) 21:31:02 437.345
HO-68 23 Nov 21:24:27 21:30:45 33° 264° (W) 21:37:07 435.675
DELFI C3 23 Nov 21:24:32 21:28:35 68° 259° (WSW) 21:32:40 145.870
HUMSAT D 23 Nov 21:25:04 21:28:51 36° 71° (ENE) 21:32:38 437.325/437.525
GONETS M04 23 Nov 21:25:22 21:32:30 29° 278° (W) 21:39:36
DOVE 4 23 Nov 21:28:32 21:32:52 37° 262° (W) 21:37:00 437.250
50 SAT 23 Nov 21:30:37 21:34:16 34° 70° (ENE) 21:37:56 437.505
AISAT 23 Nov 21:39:42 21:44:07 60° 73° (ENE) 21:48:33 437.250
CUTE 1.7 & AOD 2 23 Nov 21:47:11 21:48:54 12° 270° (W) 21:50:38 437.475
PCSat 23 Nov 21:48:55 21:53:26 26° 314° (NW) 21:58:00 145.827
TIGRISAT 23 Nov 21:50:47 21:53:13 14° 91° (E) 21:55:40 435.000
PHONESAT 2.4 23 Nov 21:50:50 21:51:53 11° 213° (SSW) 21:52:57 2401.200-2431.200
BEESAT 3 23 Nov 21:58:25 22:02:04 30° 313° (NW) 22:05:47 437.485
FUNcube-1 23 Nov 21:58:34 22:02:44 57° 259° (W) 22:06:52 145.935
UKube-1 23 Nov 22:00:11 22:03:52 27° 264° (W) 22:07:35 .
GOMX 1 23 Nov 22:01:09 22:03:53 15° 268° (W) 22:06:32 467.674
CUBEBUG 1 23 Nov 22:02:14 22:06:19 37° 70° (ENE) 22:10:24 437.445
UNISAT 6 23 Nov 22:02:22 22:05:37 20° 93° (E) 22:08:54 437.425
NANOSAT C BR1 23 Nov 22:10:26 22:12:59 16° 92° (E) 22:15:31 145.865
BEESAT 2 23 Nov 22:12:05 22:15:34 26° 315° (NW) 22:19:07 435.950
CUBEBUG 2 23 Nov 22:13:41 22:17:27 29° 264° (W) 22:21:09 437.445
Oscar 11 23 Nov 22:14:18 22:17:16 18° 268° (W) 22:20:16 145.826/435.025
UWE-3 23 Nov 22:19:04 22:22:48 29° 264° (W) 22:26:30 435.000/436.395/437.385
QB50P1 23 Nov 22:19:32 22:22:38 20° 93° (E) 22:25:42 145.935-145.965
CINEMA 3 23 Nov 22:24:30 22:27:12 16° 268° (W) 22:29:52 145.822/145.860
ANTELSAT 23 Nov 22:30:08 22:34:17 38° 98° (E) 22:38:30 437.575/2403.000
AIST 2 23 Nov 22:35:22 22:39:06 29° 314° (NW) 22:42:54 435.215
DX 1 23 Nov 22:35:38 22:37:19 12° 270° (W) 22:39:01 434.975-435.025
ESTCUBE 1 23 Nov 22:41:11 22:45:44 84° 257° (WSW) 22:50:20 437.505/2401.250
BUGSAT 1 23 Nov 22:42:43 22:46:16 28° 96° (E) 22:49:46 437.445
POPSAT HIP 1 23 Nov 22:43:24 22:47:18 35° 97° (E) 22:51:09 437.405
CUSAT 1 23 Nov 22:45:09 22:46:56 12° 71° (ENE) 22:48:53 437.405
RS-15 23 Nov 22:46:04 22:55:15 28° 22° (NNE) 23:04:40 29.354- 29.394
VELOX 1 23 Nov 22:52:27 22:56:07 25° 265° (W) 22:59:49 145.980
DANDE 23 Nov 22:59:53 23:02:03 13° 73° (ENE) 23:04:29 436.750
ZACube-1 23 Nov 23:01:48 23:03:40 13° 270° (W) 23:05:32 437.345
HUMSAT D 23 Nov 23:01:48 23:04:48 19° 267° (W) 23:07:47 437.325/437.525
50 SAT 23 Nov 23:06:45 23:09:42 19° 267° (W) 23:12:38 437.505
ISS 23 Nov 23:10:28 23:10:38 10° 129° (SE) 23:10:47 145.825
POLYITAN 1 23 Nov 23:15:13 23:19:28 83° 103° (ESE) 23:23:42 437.675
ITUPSAT 1 23 Nov 23:17:10 23:18:40 11° 58° (ENE) 23:20:10 437.325
QB50P2 23 Nov 23:18:14 23:22:30 89° 104° (ESE) 23:26:44 145.880/145.840
AISAT 23 Nov 23:18:52 23:21:09 14° 269° (W) 23:23:25 437.250
DUCHIFAT 1 23 Nov 23:25:55 23:30:09 77° 285° (WNW) 23:34:20 145.980
TIGRISAT 23 Nov 23:25:59 23:30:17 55° 287° (WNW) 23:34:39 435.000
SWISSCUBE 23 Nov 23:27:33 23:30:23 16° 61° (ENE) 23:33:14 437.505
TISAT 1 23 Nov 23:33:27 23:37:44 89° 257° (WSW) 23:42:02 437.305
SPROUT 23 Nov 23:35:44 23:40:03 83° 76° (ENE) 23:44:24 437.525
UNISAT 6 23 Nov 23:38:26 23:42:34 40° 289° (WNW) 23:46:46 437.425
CUBEBUG 1 23 Nov 23:39:20 23:42:47 22° 266° (W) 23:46:15 437.445
NANOSAT C BR1 23 Nov 23:45:05 23:49:08 46° 288° (WNW) 23:53:10 145.865
AUBIESAT-1 23 Nov 23:46:52 23:50:38 39° 64° (ENE) 23:54:44 437.475
M-CUBED/EXP-1 PRIME 23 Nov 23:50:18 23:54:08 46° 66° (ENE) 23:58:21 437.505
QB50P1 23 Nov 23:54:46 23:58:40 37° 290° (WNW) 00:02:32 145.935-145.965
BEESAT 23 Nov 23:57:44 00:01:45 27° 66° (ENE) 00:05:47 436.000
ANTELSAT 24 Nov 00:07:30 00:10:53 22° 294° (WNW) 00:14:18 437.575/2403.000
BUGSAT 1 24 Nov 00:18:20 00:21:41 24° 293° (WNW) 00:24:59 437.445
POPSAT HIP 1 24 Nov 00:19:48 00:23:00 21° 294° (WNW) 00:26:11 437.405
CUSAT 1 24 Nov 00:25:46 00:30:06 74° 261° (W) 00:35:59 437.405
DANDE 24 Nov 00:41:22 00:45:31 61° 261° (W) 00:51:08 436.750
Oscar 19 24 Nov 00:42:48 00:46:16 18° 91° (E) 00:49:44 437.125/150
ISS 24 Nov 00:43:28 00:46:45 81° 145° (SE) 00:50:03 145.825
MaSat-1 24 Nov 00:44:59 00:47:06 31° 60° (ENE) 00:49:16 437.345
YUBILEINY 24 Nov 00:50:24 00:53:09 12° 72° (ENE) 00:55:54 435.215
ITUPSAT 1 24 Nov 00:50:58 00:55:47 87° 75° (ENE) 01:00:39 437.325
POLYITAN 1 24 Nov 00:54:13 00:54:46 10° 300° (WNW) 00:55:20 437.675
